{"data":{"norad_id":66916,"epoch":"2026-09-20T10:05:05.862336Z","epoch_age_seconds":118831,"freshness":"FRESH","line1":"1 66916U 25285B   26263.42020674 -.00000109  00000+0  31828-4 0  9990","line2":"2 66916  50.0057 164.6268 0000121 230.2562 129.8300 13.29326051 38729","mean_motion":13.29326051,"eccentricity":1.21e-5,"inclination_deg":50.0057,"raan_deg":164.6268,"arg_perigee_deg":230.2562,"mean_anomaly_deg":129.83,"bstar":3.1828e-5,"rev_number":3872,"period_min":108.32556835223,"perigee_km":1149.2152972604,"apogee_km":1149.3974613902,"semimajor_km":7527.4433793253,"source":"CELESTRAK","updated_at":"2026-09-21T09:00:16.304047Z"}}